Simultaneous Nadir Overpasses (SNOs) Predictions

Prediction of SNOs between METOP-A and NOAA-19 Satellite Orbit:

Table of predicted SNOs for the next 14.0 days since TLE Epoch: 10/2/2021
Index Date (METOP-A) Time (METOP-A) Lat,Lon (METOP-A) SZA (METOP-A ) Date (NOAA-19) Time (NOAA-19) Lat,Lon (NOAA-19) SZA (NOAA-19 ) Distance(km) Time Diff (sec)
1 10/03/2021 04:04:58 80.47, 119.62 84.47 10/03/2021 04:03:44 80.46, 119.47 84.45 3.16 74
2 10/03/2021 04:55:40 -80.45, -73.28 95.54 10/03/2021 04:54:39 -80.46, -73.27 95.54 0.43 61
3 10/03/2021 05:46:19 80.49, 94.44 84.51 10/03/2021 05:45:43 80.48, 94.40 84.50 1.31 36
4 10/03/2021 06:37:00 -80.47, -98.45 95.50 10/03/2021 06:36:37 -80.48, -98.35 95.49 2.18 23
5 10/03/2021 07:27:39 80.50, 69.27 84.56 10/03/2021 07:27:41 80.50, 69.32 84.56 0.99 2
6 10/03/2021 08:18:20 -80.51,-123.31 95.43 10/03/2021 08:18:36 -80.50,-123.43 95.44 2.54 16
7 10/03/2021 09:09:01 80.49, 43.78 84.57 10/03/2021 09:09:41 80.50, 43.90 84.59 2.79 40
8 10/03/2021 09:59:41 -80.52,-148.48 95.38 10/03/2021 10:00:35 -80.52,-148.50 95.39 0.80 54
9 10/14/2021 07:50:18 -80.35,-118.32 91.42 10/14/2021 07:49:14 -80.36,-118.34 91.42 0.54 64
10 10/14/2021 08:40:57 80.38, 49.34 88.63 10/14/2021 08:40:17 80.39, 49.44 88.63 1.96 40
11 10/14/2021 09:31:38 -80.40,-143.19 91.35 10/14/2021 09:31:12 -80.40,-143.10 91.35 1.79 26
12 10/14/2021 10:22:18 80.40, 24.16 88.67 10/14/2021 10:22:17 80.39, 24.02 88.66 2.78 1
13 10/14/2021 11:12:59 -80.41,-168.37 91.31 10/14/2021 11:13:12 -80.40,-168.52 91.32 2.94 13
14 10/14/2021 12:03:39 80.41, -1.02 88.71 10/14/2021 12:04:16 80.41, -1.07 88.71 0.96 37
15 10/14/2021 12:54:20 -80.43, 166.45 91.27 10/14/2021 12:55:11 -80.42, 166.39 91.27 1.05 51



Historial Predications of SNOs between METOP-A and NOAA-19
